Regional Weather Roundup
Issued by NWS Upton, NY

Current Version | Previous Version | Text Only | Print | Product List | Glossary Off
Versions: 1 2 3 4 5 6 7 8 9 10 11 12 13 14 15 16 17 18 19 20 21 22 23 24 25 26 27 28 29 30 31 32 33 34 35 36 37 38 39 40 41 42 43 44 45 46 47 48 49 50
000 ASUS41 KOKX 171705 RWROKX REGIONAL WEATHER ROUNDUP NATIONAL WEATHER SERVICE NEW YORK NY 1200 PM EST WED DEC 17 2014 NOTE: "FAIR" INDICATES FEW OR NO CLOUDS BELOW 12,000 FEET WITH NO SIGNIFICANT WEATHER AND/OR OBSTRUCTIONS TO VISIBILITY. NYZ071-072-176-178-NJZ106-104-171800- NEW YORK CITY METRO AREA CITY SKY/WX TMP DP RH WIND PRES REMARKS CENTRAL PARK PTSUNNY 52 38 58 VRB7 29.84F LAGUARDIA APRT PTSUNNY 52 39 61 NW15 29.81F KENNEDY INTL MOSUNNY 54 39 57 W16G26 29.82F NEWARK/LIBERTY LGT RAIN 53 40 61 W17G23 29.82F BRNX BOT. GARD N/A 54 37 54 NW20 29.81F TETERBORO CLOUDY 52 39 61 W12 29.82F $$ NYZ177-179-078>081-171800- LONG ISLAND NEW YORK CITY SKY/WX TMP DP RH WIND PRES REMARKS FARMINGDALE MOSUNNY 52 41 66 W12G18 29.81F ISLIP MOSUNNY 53 42 66 W13G21 29.78F SHIRLEY MOSUNNY 51 42 71 NW13 29.80F WESTHAMPTON MOSUNNY 51 43 74 W10 29.79F MONTAUK POINT N/A 47 42 83 W10G18 29.77F $$ NYZ052-065-067-171800- HUDSON VALLEY CITY SKY/WX TMP DP RH WIND PRES REMARKS WHITE PLAINS MOSUNNY 50 39 66 NW14G22 29.79F NEWBURGH PTSUNNY 48 43 81 NW18G25 29.81F MONTGOMERY PTSUNNY 50 39 66 W14 29.79F POUGHKEEPSIE CLOUDY 49 43 80 CALM 29.80F ALBANY CLOUDY 39 37 92 CALM 29.80F FOG $$ NJZ001-105-106-008-010-013-015-019>022-104-171800- NEW JERSEY CITY SKY/WX TMP DP RH WIND PRES REMARKS NEWARK/LIBERTY LGT RAIN 53 40 61 W17G23 29.82F TETERBORO CLOUDY 52 39 61 W12 29.82F CALDWELL PTSUNNY 51 38 60 W8 29.82F MORRISTOWN NOT AVBL SOMERVILLE PTSUNNY 51 40 65 VRB3 29.83F SUSSEX CLOUDY 50 38 63 W14G20 29.82F ANDOVER N/A 49 38 65 VRB3 29.83F TRENTON PTSUNNY 50 37 61 NW13G21 29.86F MILLVILLE PTSUNNY 53 41 63 W12G21 29.90F ATLANTIC CITY MOSUNNY 52 39 61 W22G29 29.88F WRIGHTSTOWN PTSUNNY 53 40 61 NW16G24 29.84F TOMS RIVER PTSUNNY 54 39 58 W17G24 29.85F BELMAR SUNNY 54 39 58 NW20G25 29.83F $$ PAZ047>061-062-071-171800- EASTERN PENNSYLVANIA CITY SKY/WX TMP DP RH WIND PRES REMARKS PHILADELPHIA PTSUNNY 52 39 61 W17 29.90F ALLENTOWN CLOUDY 50 37 61 W14G23 29.87F SCRANTON CLOUDY 46 38 73 W13G20 29.85F $$ CTZ002-004>006-009-010-012-RIZ004-006-007-MAZ004-011-015-171800- SOUTHERN NEW ENGLAND IN CT CITY SKY/WX TMP DP RH WIND PRES REMARKS BRADLEY INTL PTSUNNY 50 41 71 NW6 29.75F HARTFORD PTSUNNY 49 41 74 VRB6 29.77F DANBURY CLOUDY 48 38 68 W7 29.80F WTRBRY/OXFORD PTSUNNY 45 37 76 NW8 29.78F BRIDGEPORT PTSUNNY 51 42 71 W8 29.79F MERIDEN PTSUNNY 51 39 63 NW13 29.77F NEW HAVEN MOSUNNY 52 42 69 NW8 29.78F CHESTER PTSUNNY 48 41 76 NW14G20 29.76F GROTON SUNNY 50 42 74 NW14 29.75F WILLIMANTIC CLOUDY 48 41 76 W12 29.76F IN RI CITY SKY/WX TMP DP RH WIND PRES REMARKS PROVIDENCE CLOUDY 48 43 82 NW12 29.73F BLOCK ISLAND PTSUNNY 46 41 81 W17 29.74F WESTERLY PTSUNNY 50 43 77 NW12 29.75F IN MA CITY SKY/WX TMP DP RH WIND PRES REMARKS BOSTON CLOUDY 43 40 89 NW13G20 29.70F WORCESTER PTSUNNY 42 41 96 W13 29.71F WESTFIELD PTSUNNY 49 40 71 N3 29.76F PROVINCETOWN CLOUDY 48 43 81 NW17 29.68S NANTUCKET CLOUDY 47 45 93 W13G23 29.68F FOG $$ ANZ330-335-338-340-345-350-353-355-171800- COASTAL MARINE OBSERVATIONS STATION/POSITION TIME SKY/WX TEMP WIND PRES VSBY WAVE AIR SEA DIR/SP/G HT/PER (UTC) (F) (DEG/KT/KT) (MB) (MI) (FT/S) NY HARB ENTRANCE 1700 48 46 290/ 14/ 16 1010.4 2/ 3 4S FIRE IS 1700 46 N/A 3/ 5 20S FIRE ISLAND 1600 49 50 1010.7 3/ 4 23SW MTP 1700 N/A 3/ 6 HUDSON CANYON 1700 49 55 300/ 19/ 23 1009.6 6/ 6 EXECUTION ROCKS 1700 54 42 270/ 12/ 17 N/A WESTERN LI SOUND 1700 49 300/ 10/ 14 N/A 1 CENTRAL LI SOUND 1600 44 45 250/ 12/ 16 N/A 1/ 2 EASTERN LI SOUND NOT AVBL ROBBINS REEF 1700 51 310/ 11/ 17 1008.7 $$ >>>>>>>>>>>>>>>>>>>>>>>>>>>> KEY <<<<<<<<<<<<<<<<<<<<<<<<<<< > < > SKY/WX - SKY CONDITION/PRESENT WEATHER < > TMP - TEMPERATURE IN FAHRENHEIT < > DP - DEWPOINT IN FAHRENHEIT < > RH - RELATIVE HUMIDITY IN PERCENT < > WIND - DIRECTION AND SPEED IN MPH < > PRES - MEAN SEA LEVEL PRESSURE IN INCHES OF HG < > WCI - WIND CHILL INDEX < > VSB - VISIBILITY IN MILES < > HX - HEAT INDEX < > TC - TEMPERATURE IN CELSIUS < > VRB - VARIABLE WIND DIRECTION < > < >>>>>>>>>>>>>>>>>>>>>>>>>>>> KEY <<<<<<<<<<<<<<<<<<<<<<<<<<<

USA.gov is the U.S. government's official web portal to all federal, state and local government web resources and services.